Weather History for Dodge Center, MN

Change the Weather History Date:

Wednesday, August 20, 2014

  Actual Average (KRST) Record (KRST)
Temperature  
Mean Temperature 68 °F 69 °F  
Max Temperature 80 °F 79 °F 96 °F (1955)
Min Temperature 57 °F 59 °F 35 °F (1950)
Degree Days  
Heating Degree Days 0 1  
Month to date heating degree days 17  
Since 1 July heating degree days 28  
Cooling Degree Days 4 5  
Month to date cooling degree days 110  
Year to date cooling degree days 481  
Growing Degree Days 18 (Base 50)    
Moisture  
Dew Point 66 °F    
Average Humidity 85    
Maximum Humidity 100    
Minimum Humidity 61    
Precipitation  
Precipitation 0.00 in 0.15 in 1.84 in (1947)
Month to date precipitation 2.95  
Year to date precipitation 22.62  
Snow  
Snow 0.00 in 0.00 in 0.00 in (2012)
Month to date snowfall 0.0  
Since 1 July snowfall 0.0  
Snow Depth -    
Sea Level Pressure  
Sea Level Pressure 29.87 in    
Wind  
Wind Speed 4 mph (South)    
Max Wind Speed 9 mph    
Max Gust Speed -    
Visibility 8 miles    
Events Fog    
T = Trace of Precipitation, MM = Missing Value Source: NWS Daily Summary

Daily Weather History Graph

Daily Weather History Graph

Search for Another Location

Airport:

Trip Planner

Search our weather history database for the weather conditions in past years. The results will help you decide how hot, cold, wet, or windy it might be!

Date:

Astronomy

Aug. 20, 2014 Rise Set
Actual Time 6:20 AM CDT 8:07 PM CDT
Civil Twilight 5:50 AM CDT 8:38 PM CDT
Nautical Twilight 5:12 AM CDT 9:15 PM CDT
Astronomical Twilight 4:31 AM CDT 9:56 PM CDT
Moon 1:57 AM CDT 4:56 PM CDT
Length of Visible Light 14h 48m
Length of Day
13h 46m
Waning Crescent, 20% of the Moon is Illuminated
Aug 20
Waning Crescent
Aug 25
New
Sep 2
First Quarter
Sep 8
Full
Sep 15
Last Quarter

Hourly Weather History & Observations

Time (CDT) Temp. Heat Index Dew Point Humidity Pressure Visibility Wind Dir Wind Speed Gust Speed Precip Events Conditions
12:14 AM 62.6 °F - 62.6 °F 100% 29.82 in 7.0 mi SW 5.8 mph - N/A   Clear
12:33 AM 64.4 °F - 62.6 °F 94% 29.82 in 10.0 mi WSW 4.6 mph - N/A   Clear
12:54 AM 62.6 °F - 62.6 °F 100% 29.82 in 7.0 mi WSW 5.8 mph - N/A   Scattered Clouds
1:14 AM 62.6 °F - 62.6 °F 100% 29.82 in 7.0 mi SW 3.5 mph - N/A   Clear
1:33 AM 64.4 °F - 62.6 °F 94% 29.82 in 7.0 mi Calm Calm - N/A   Clear
1:54 AM 62.6 °F - 62.6 °F 100% 29.82 in 7.0 mi WSW 4.6 mph - N/A   Clear
2:14 AM 62.6 °F - 60.8 °F 94% 29.82 in 5.0 mi WSW 5.8 mph - N/A   Scattered Clouds
2:33 AM 62.6 °F - 62.6 °F 100% 29.83 in 5.0 mi WSW 4.6 mph - N/A   Scattered Clouds
2:54 AM 62.6 °F - 60.8 °F 94% 29.83 in 4.0 mi WSW 4.6 mph - N/A   Clear
3:14 AM 62.6 °F - 60.8 °F 94% 29.83 in 4.0 mi WSW 5.8 mph - N/A   Clear
3:33 AM 62.6 °F - 60.8 °F 94% 29.83 in 3.0 mi WSW 4.6 mph - N/A   Clear
3:54 AM 60.8 °F - 60.8 °F 100% 29.83 in 3.0 mi WSW 4.6 mph - N/A   Clear
4:13 AM 62.6 °F - 60.8 °F 94% 29.83 in 2.5 mi Calm Calm - N/A   Clear
4:34 AM 62.6 °F - 60.8 °F 94% 29.83 in 2.0 mi Calm Calm - N/A   Clear
4:54 AM 60.8 °F - 60.8 °F 100% 29.83 in 0.5 mi Calm Calm - N/A Fog Fog
5:13 AM 60.8 °F - 59.0 °F 94% 29.84 in 0.5 mi Calm Calm - N/A Fog Fog
5:34 AM 62.6 °F - 60.8 °F 94% 29.83 in 0.2 mi Calm Calm - N/A Fog Fog
5:54 AM 59.0 °F - 57.2 °F 94% 29.82 in 0.2 mi Calm Calm - N/A Fog Fog
6:13 AM 57.2 °F - 57.2 °F 100% 29.84 in 0.2 mi Calm Calm - N/A Fog Fog
6:34 AM 59.0 °F - 57.2 °F 94% 29.84 in 0.5 mi Calm Calm - N/A Fog Fog
6:54 AM 60.8 °F - 59.0 °F 94% 29.86 in 0.5 mi Calm Calm - N/A Fog Fog
7:13 AM 60.8 °F - 60.8 °F 100% 29.87 in 3.0 mi Calm Calm - N/A   Scattered Clouds
7:34 AM 64.4 °F - 64.4 °F 100% 29.88 in 3.0 mi Calm Calm - N/A   Clear
7:53 AM 66.2 °F - 64.4 °F 94% 29.87 in 4.0 mi Calm Calm - N/A   Clear
8:13 AM 66.2 °F - 66.2 °F 100% 29.86 in 5.0 mi North 3.5 mph - N/A   Clear
8:34 AM 68.0 °F - 66.2 °F 94% 29.87 in 7.0 mi NE 3.5 mph - N/A   Clear
8:53 AM 68.0 °F - 66.2 °F 94% 29.86 in 7.0 mi ENE 5.8 mph - N/A   Clear
9:13 AM 69.8 °F - 66.2 °F 88% 29.89 in 7.0 mi South 4.6 mph - N/A   Clear
9:34 AM 71.6 °F - 68.0 °F 88% 29.90 in 7.0 mi South 6.9 mph - N/A   Scattered Clouds
9:53 AM 71.6 °F - 68.0 °F 88% 29.89 in 10.0 mi SE 3.5 mph - N/A   Scattered Clouds
10:13 AM 73.4 °F - 69.8 °F 88% 29.89 in 10.0 mi SE 4.6 mph - N/A   Clear
10:34 AM 73.4 °F - 68.0 °F 83% 29.90 in 10.0 mi SSE 3.5 mph - N/A   Clear
10:53 AM 75.2 °F - 69.8 °F 83% 29.90 in 10.0 mi SSE 3.5 mph - N/A   Clear
11:13 AM 75.2 °F - 68.0 °F 78% 29.88 in 10.0 mi ESE 3.5 mph - N/A   Clear
11:34 AM 77.0 °F - 69.8 °F 78% 29.88 in 10.0 mi SE 4.6 mph - N/A   Clear
11:53 AM 77.0 °F - 68.0 °F 74% 29.87 in 10.0 mi SE 5.8 mph - N/A   Clear
12:14 PM 77.0 °F - 66.2 °F 69% 29.87 in 10.0 mi South 6.9 mph - N/A   Clear
12:33 PM 78.8 °F - 66.2 °F 65% 29.88 in 10.0 mi SSE 6.9 mph - N/A   Clear
12:53 PM 77.0 °F - 66.2 °F 69% 29.88 in 10.0 mi SSE 4.6 mph - N/A   Clear
1:13 PM 78.8 °F - 66.2 °F 65% 29.89 in 10.0 mi South 3.5 mph - N/A   Clear
1:33 PM 78.8 °F - 66.2 °F 65% 29.89 in 10.0 mi SSW 4.6 mph - N/A   Clear
1:54 PM 80.6 °F 82.7 °F 66.2 °F 61% 29.88 in 10.0 mi SW 5.8 mph - N/A   Scattered Clouds
2:14 PM 80.6 °F 83.2 °F 68.0 °F 65% 29.88 in 10.0 mi SSW 6.9 mph - N/A   Clear
2:33 PM 80.6 °F 82.7 °F 66.2 °F 61% 29.88 in 10.0 mi Calm Calm - N/A   Clear
2:54 PM 78.8 °F - 68.0 °F 69% 29.87 in 10.0 mi Calm Calm - N/A   Clear
3:14 PM 80.6 °F 83.2 °F 68.0 °F 65% 29.87 in 10.0 mi SSE 3.5 mph - N/A   Clear
3:33 PM 80.6 °F 82.7 °F 66.2 °F 61% 29.86 in 10.0 mi SSE 4.6 mph - N/A   Clear
3:54 PM 80.6 °F 83.2 °F 68.0 °F 65% 29.87 in 10.0 mi South 4.6 mph - N/A   Scattered Clouds
4:14 PM 80.6 °F 82.7 °F 66.2 °F 61% 29.86 in 10.0 mi Calm Calm - N/A   Scattered Clouds
4:33 PM 80.6 °F 83.9 °F 69.8 °F 70% 29.87 in 10.0 mi SE 3.5 mph - N/A   Scattered Clouds
4:54 PM 80.6 °F 83.9 °F 69.8 °F 70% 29.87 in 10.0 mi SE 3.5 mph - N/A   Scattered Clouds
5:13 PM 78.8 °F - 69.8 °F 74% 29.88 in 10.0 mi SE 3.5 mph - N/A   Mostly Cloudy
5:33 PM 80.6 °F 83.9 °F 69.8 °F 70% 29.87 in 10.0 mi SE 3.5 mph - N/A   Scattered Clouds
5:54 PM 80.6 °F 83.9 °F 69.8 °F 70% 29.87 in 10.0 mi SE 6.9 mph - N/A   Scattered Clouds
6:13 PM 78.8 °F - 69.8 °F 74% 29.88 in 10.0 mi South 8.1 mph - N/A   Scattered Clouds
6:33 PM 78.8 °F - 68.0 °F 69% 29.88 in 10.0 mi South 9.2 mph - N/A   Scattered Clouds
6:54 PM 78.8 °F - 69.8 °F 74% 29.88 in 10.0 mi South 6.9 mph - N/A   Clear
7:13 PM 77.0 °F - 69.8 °F 78% 29.88 in 10.0 mi South 6.9 mph - N/A   Clear
7:34 PM 75.2 °F - 69.8 °F 83% 29.87 in 10.0 mi SE 5.8 mph - N/A   Clear
7:54 PM 73.4 °F - 69.8 °F 88% 29.87 in 10.0 mi South 6.9 mph - N/A   Clear
8:13 PM 71.6 °F - 69.8 °F 94% 29.88 in 10.0 mi South 5.8 mph - N/A   Clear
8:34 PM 71.6 °F - 68.0 °F 88% 29.88 in 10.0 mi South 5.8 mph - N/A   Clear
8:53 PM 71.6 °F - 68.0 °F 88% 29.89 in 10.0 mi South 6.9 mph - N/A   Clear
9:13 PM 71.6 °F - 69.8 °F 94% 29.89 in 10.0 mi SSE 8.1 mph - N/A   Clear
9:34 PM 71.6 °F - 68.0 °F 88% 29.89 in 10.0 mi South 6.9 mph - N/A   Clear
9:53 PM 69.8 °F - 68.0 °F 94% 29.89 in 10.0 mi SSE 5.8 mph - N/A   Clear
10:13 PM 69.8 °F - 66.2 °F 88% 29.89 in 10.0 mi SE 3.5 mph - N/A   Clear
10:34 PM 69.8 °F - 66.2 °F 88% 29.89 in 10.0 mi Calm Calm - N/A   Scattered Clouds
10:53 PM 69.8 °F - 66.2 °F 88% 29.89 in 10.0 mi Calm Calm - N/A   Scattered Clouds
11:13 PM 69.8 °F - 66.2 °F 88% 29.90 in 10.0 mi Calm Calm - N/A   Scattered Clouds
11:33 PM 69.8 °F - 66.2 °F 88% 29.89 in 10.0 mi Calm Calm - N/A   Clear
11:53 PM 69.8 °F - 66.2 °F 88% 29.89 in 10.0 mi SE 4.6 mph - N/A   Clear